Orbital Elements at Epoch 2459200.5 (2020-Dec-17.0) TDB
Reference: JPL 25 (heliocentric ecliptic J2000)
Element | Value | Uncertainty (1-sigma) | Units |
e | .04663768283677217 | 7.1498e-08 | |
a | 5.242948634660419 | 1.0209e-07 | au |
q | 4.998429659107639 | 4.073e-07 | au |
i | 15.76504400232052 | 8.1792e-06 | deg |
node | 31.35366225432442 | 1.7393e-05 | deg |
peri | 323.1134589214315 | 7.341e-05 | deg |
M | 237.4951708225062 | 7.5346e-05 | deg |
tp | 2460692.650193472836 (2025-Jan-17.15019347) | 0.00093902 | TDB |
period | 4384.921584372192 12.01 | 0.00012807 3.506e-07 | d yr |
n | .08209952973458765 | 2.3979e-09 | deg/d |
Q | 5.487467610213201 | 1.0685e-07 | au |
|
| | Orbit Determination Parameters
Additional Information
|